sat.trackr.live / text

‹ back to catalog

KUIPER-00042

NORAD 64503 · 2025-134D

PAYLOAD ACTIVE UNKNOWN

§ Identity

Operator
Country
US
Launch date
2025-06-23
Launch site
AFETR
Launch vehicle
Mass (kg)
RCS (m²)

External: N2YO · Heavens-Above · Gunter

§ Orbital elements

Epoch: 2026-05-25T00:46:22.448064Z

Period
97.30 min
Inclination
51.8977°
Eccentricity
0.0000354
Mean motion
14.79938725 rev/d
Perigee alt
629.3 km
Apogee alt
629.8 km
Semi-major
7,007.7 km
B*
2.2565e-4
RAAN
262.9714°
Arg perigee
115.7479°
Mean anomaly
244.3520°
Rev number
5,127

§ Raw data

KUIPER-000421 64503U 25134D   26145.03220426  .00001500  00000+0  22565-3 0  99982 64503  51.8977 262.9714 0000354 115.7479 244.3520 14.79938725 51274

JSON: /api/v1/satellites/64503 · /tle

For live sub-satellite position, see the globe view (requires WebGL).

§ Visibility from observer

Set your observer location to see the next 7 days of passes ≥ 10°. The values pass through the URL so the page stays shareable.

No JS? Fill the form by hand. The geolocation button needs JavaScript.